Time,TemperatureF,DewpointF,PressureIn,WindDirection,WindDirectionDegrees,WindSpeedMPH,WindSpeedGustMPH,Humidity,HourlyPrecipIn,Conditions,Clouds,dailyrainin,SoftwareType,DateUTC
2013-08-01 00:01:00,74.1,66.4,31.59,South,180,9.6,9.6,77,0.00,,,0.00,VWS V13.00,2013-08-01 04:01:00,
2013-08-01 00:02:00,74.1,66.4,31.59,South,180,9.6,9.6,77,0.00,,,0.00,VWS V13.00,2013-08-01 04:02:00,
2013-08-01 00:07:00,74.1,66.8,31.59,South,180,9.6,13.1,78,0.00,,,0.00,VWS V13.00,2013-08-01 04:07:00,
2013-08-01 00:12:00,74.1,66.8,31.59,SSE,158,9.1,13.1,78,0.00,,,0.00,VWS V13.00,2013-08-01 04:12:00,
2013-08-01 00:17:00,74.1,66.8,31.59,SSE,158,8.7,13.1,78,0.00,,,0.00,VWS V13.00,2013-08-01 04:17:00,
2013-08-01 00:22:00,73.9,66.6,31.59,South,180,7.6,9.8,78,0.00,,,0.00,VWS V13.00,2013-08-01 04:22:00,
2013-08-01 00:27:00,73.9,66.6,31.59,ESE,112,9.6,9.8,78,0.00,,,0.00,VWS V13.00,2013-08-01 04:27:00,
2013-08-01 00:32:00,74.1,66.8,31.59,South,180,11.1,11.1,78,0.00,,,0.00,VWS V13.00,2013-08-01 04:32:00,
2013-08-01 00:37:00,73.9,66.6,31.59,South,180,8.2,11.1,78,0.00,,,0.00,VWS V13.00,2013-08-01 04:37:00,
2013-08-01 00:42:00,73.9,66.6,31.59,SSE,158,9.8,9.8,78,0.00,,,0.00,VWS V13.00,2013-08-01 04:42:00,
2013-08-01 00:47:00,73.9,67.0,31.59,ESE,112,6.7,9.8,79,0.00,,,0.00,VWS V13.00,2013-08-01 04:47:00,
2013-08-01 00:52:00,73.9,67.0,31.59,SSE,158,8.9,9.8,79,0.00,,,0.00,VWS V13.00,2013-08-01 04:52:00,
2013-08-01 00:57:00,73.9,67.0,31.59,East,90,7.8,9.8,79,0.00,,,0.00,VWS V13.00,2013-08-01 04:57:00,
2013-08-01 01:02:00,73.9,67.0,31.59,SSE,158,5.5,10.5,79,0.00,,,0.00,VWS V13.00,2013-08-01 05:02:00,
2013-08-01 01:07:00,73.9,67.0,31.59,SSE,158,4.0,10.5,79,0.00,,,0.00,VWS V13.00,2013-08-01 05:07:00,
2013-08-01 01:12:00,73.9,67.3,31.59,SSE,158,6.9,10.5,80,0.00,,,0.00,VWS V13.00,2013-08-01 05:12:00,
2013-08-01 01:17:00,73.9,67.3,31.59,ESE,112,7.8,10.5,80,0.00,,,0.00,VWS V13.00,2013-08-01 05:17:00,
2013-08-01 01:22:00,73.9,67.3,31.59,SE,135,6.7,6.7,80,0.00,,,0.00,VWS V13.00,2013-08-01 05:22:00,
2013-08-01 01:27:00,73.9,67.3,31.59,South,180,5.5,6.7,80,0.00,,,0.00,VWS V13.00,2013-08-01 05:27:00,
2013-08-01 01:32:00,73.7,67.2,31.59,SSE,158,5.1,7.8,80,0.00,,,0.00,VWS V13.00,2013-08-01 05:32:00,
2013-08-01 01:38:00,73.7,67.2,31.59,SSE,158,5.1,7.8,80,0.00,,,0.00,VWS V13.00,2013-08-01 05:38:00,
2013-08-01 01:43:00,73.7,67.2,31.59,SSE,158,5.3,8.5,80,0.00,,,0.00,VWS V13.00,2013-08-01 05:43:00,
2013-08-01 01:48:00,73.5,67.0,31.59,South,180,6.2,8.5,80,0.00,,,0.00,VWS V13.00,2013-08-01 05:48:00,
2013-08-01 01:53:00,73.5,67.0,31.59,South,180,9.6,9.6,80,0.00,,,0.00,VWS V13.00,2013-08-01 05:53:00,
2013-08-01 01:58:00,73.4,66.9,31.59,SSE,158,9.3,9.6,80,0.00,,,0.00,VWS V13.00,2013-08-01 05:58:00,
2013-08-01 02:03:00,73.2,66.7,31.59,South,180,6.9,6.9,80,0.00,,,0.00,VWS V13.00,2013-08-01 06:03:00,
2013-08-01 02:08:00,73.2,66.7,31.59,South,180,2.4,6.9,80,0.00,,,0.00,VWS V13.00,2013-08-01 06:08:00,
2013-08-01 02:13:00,73.2,66.7,31.59,SSE,158,1.5,6.9,80,0.00,,,0.00,VWS V13.00,2013-08-01 06:13:00,
2013-08-01 02:18:00,73.2,66.7,31.59,SSE,158,2.9,6.9,80,0.00,,,0.00,VWS V13.00,2013-08-01 06:18:00,
2013-08-01 02:23:00,73.2,67.0,31.59,SSE,158,4.4,4.4,81,0.00,,,0.00,VWS V13.00,2013-08-01 06:23:00,
2013-08-01 02:28:00,73.2,67.0,31.59,SSE,158,3.5,4.9,81,0.00,,,0.00,VWS V13.00,2013-08-01 06:28:00,
2013-08-01 02:33:00,73.2,67.0,31.59,ESE,112,2.4,4.9,81,0.00,,,0.00,VWS V13.00,2013-08-01 06:33:00,
2013-08-01 02:38:00,73.2,67.0,31.59,SSE,158,3.5,4.9,81,0.00,,,0.00,VWS V13.00,2013-08-01 06:38:00,
2013-08-01 02:43:00,73.2,67.0,31.59,SE,135,1.1,2.9,81,0.00,,,0.00,VWS V13.00,2013-08-01 06:43:00,
2013-08-01 02:48:00,73.2,67.0,31.59,South,180,3.1,3.1,81,0.00,,,0.00,VWS V13.00,2013-08-01 06:48:00,
2013-08-01 02:53:00,73.2,67.0,31.59,South,180,2.2,3.1,81,0.00,,,0.00,VWS V13.00,2013-08-01 06:53:00,
2013-08-01 02:58:00,73.2,67.0,31.59,SSE,158,3.1,5.3,81,0.00,,,0.00,VWS V13.00,2013-08-01 06:58:00,
2013-08-01 03:03:00,73.2,67.0,31.59,SE,135,1.1,1.1,81,0.00,,,0.00,VWS V13.00,2013-08-01 07:03:00,
2013-08-01 03:08:00,73.2,67.0,31.59,SE,135,0.0,1.1,81,0.00,,,0.00,VWS V13.00,2013-08-01 07:08:00,
2013-08-01 03:13:00,73.0,66.8,31.59,South,180,3.5,3.5,81,0.00,,,0.00,VWS V13.00,2013-08-01 07:13:00,
2013-08-01 03:18:00,73.0,66.8,31.59,SE,135,2.2,3.5,81,0.00,,,0.00,VWS V13.00,2013-08-01 07:18:00,
2013-08-01 03:23:00,73.0,66.8,31.59,SE,135,3.8,3.8,81,0.00,,,0.00,VWS V13.00,2013-08-01 07:23:00,
2013-08-01 03:28:00,73.0,66.8,31.59,SSE,158,1.3,3.8,81,0.00,,,0.00,VWS V13.00,2013-08-01 07:28:00,
2013-08-01 03:33:00,73.0,66.8,31.59,SW,225,3.3,3.8,81,0.00,,,0.00,VWS V13.00,2013-08-01 07:33:00,
2013-08-01 03:38:00,73.0,66.8,31.59,SSE,158,0.0,3.8,81,0.00,,,0.00,VWS V13.00,2013-08-01 07:38:00,
2013-08-01 03:43:00,73.0,66.8,31.59,SSE,158,1.5,4.2,81,0.00,,,0.00,VWS V13.00,2013-08-01 07:43:00,
2013-08-01 03:48:00,73.0,66.8,31.59,South,180,0.0,6.2,81,0.00,,,0.00,VWS V13.00,2013-08-01 07:48:00,
2013-08-01 03:53:00,73.2,67.0,31.59,ESE,112,3.5,6.2,81,0.00,,,0.00,VWS V13.00,2013-08-01 07:53:00,
2013-08-01 03:59:00,73.2,67.0,31.59,ESE,112,2.0,6.2,81,0.00,,,0.00,VWS V13.00,2013-08-01 07:59:00,
2013-08-01 04:04:00,73.2,67.0,31.59,SSE,158,0.0,0.0,81,0.00,,,0.00,VWS V13.00,2013-08-01 08:04:00,
2013-08-01 04:09:00,73.2,67.4,31.59,SSW,202,2.2,2.2,82,0.00,,,0.00,VWS V13.00,2013-08-01 08:09:00,
2013-08-01 04:15:00,73.2,67.4,31.59,SE,135,2.4,4.0,82,0.00,,,0.00,VWS V13.00,2013-08-01 08:15:00,
2013-08-01 04:20:00,73.2,67.4,31.59,SE,135,5.8,5.8,82,0.00,,,0.00,VWS V13.00,2013-08-01 08:20:00,
2013-08-01 04:25:00,73.2,67.4,31.59,SSE,158,1.3,5.8,82,0.00,,,0.00,VWS V13.00,2013-08-01 08:25:00,
2013-08-01 04:30:00,73.2,67.4,31.59,South,180,6.4,6.4,82,0.00,,,0.00,VWS V13.00,2013-08-01 08:30:00,
2013-08-01 04:35:00,73.2,67.4,31.59,SE,135,5.1,6.4,82,0.00,,,0.00,VWS V13.00,2013-08-01 08:35:00,
2013-08-01 04:41:00,73.2,67.4,31.59,SE,135,3.1,5.8,82,0.00,,,0.00,VWS V13.00,2013-08-01 08:41:00,
2013-08-01 04:46:00,73.2,67.4,31.59,SSE,158,5.1,5.8,82,0.00,,,0.00,VWS V13.00,2013-08-01 08:46:00,
2013-08-01 04:51:00,73.2,67.4,31.59,SE,135,6.0,6.0,82,0.00,,,0.00,VWS V13.00,2013-08-01 08:51:00,
2013-08-01 04:57:00,73.2,67.4,31.59,East,90,0.0,6.0,82,0.00,,,0.00,VWS V13.00,2013-08-01 08:57:00,
2013-08-01 05:02:00,73.2,67.4,31.59,South,180,3.3,3.3,82,0.00,,,0.00,VWS V13.00,2013-08-01 09:02:00,
2013-08-01 05:08:00,73.2,67.4,31.59,SE,135,4.4,5.3,82,0.00,,,0.00,VWS V13.00,2013-08-01 09:08:00,
2013-08-01 05:15:00,73.2,67.4,31.59,SSE,158,4.2,5.3,82,0.00,,,0.00,VWS V13.00,2013-08-01 09:15:00,
2013-08-01 05:20:00,73.2,67.4,31.59,SSE,158,6.9,6.9,82,0.00,,,0.00,VWS V13.00,2013-08-01 09:20:00,
2013-08-01 05:25:00,73.2,67.4,31.59,SSE,158,8.2,8.2,82,0.00,,,0.00,VWS V13.00,2013-08-01 09:25:00,
2013-08-01 05:31:00,73.2,67.4,31.59,SSE,158,8.2,8.2,82,0.00,,,0.00,VWS V13.00,2013-08-01 09:31:00,
2013-08-01 05:36:00,73.2,67.4,31.59,ESE,112,3.5,8.2,82,0.00,,,0.00,VWS V13.00,2013-08-01 09:36:00,
2013-08-01 05:41:00,73.4,67.6,31.59,SE,135,4.2,4.4,82,0.00,,,0.00,VWS V13.00,2013-08-01 09:41:00,
2013-08-01 05:46:00,73.4,67.6,31.59,SSE,158,5.8,5.8,82,0.00,,,0.00,VWS V13.00,2013-08-01 09:46:00,
2013-08-01 05:51:00,73.4,67.6,31.59,SE,135,3.3,5.8,82,0.00,,,0.00,VWS V13.00,2013-08-01 09:51:00,
2013-08-01 05:57:00,73.4,67.6,31.59,South,180,1.1,5.8,82,0.00,,,0.00,VWS V13.00,2013-08-01 09:57:00,
2013-08-01 06:02:00,73.4,67.6,31.59,SSE,158,4.9,4.9,82,0.00,,,0.00,VWS V13.00,2013-08-01 10:02:00,
2013-08-01 06:07:00,73.5,67.7,31.59,South,180,3.5,4.9,82,0.00,,,0.00,VWS V13.00,2013-08-01 10:07:00,
2013-08-01 06:12:00,73.5,68.0,31.59,South,180,1.7,8.7,83,0.00,,,0.00,VWS V13.00,2013-08-01 10:12:00,
2013-08-01 06:17:00,73.5,68.0,31.59,South,180,5.1,8.7,83,0.00,,,0.00,VWS V13.00,2013-08-01 10:17:00,
2013-08-01 06:22:00,73.5,68.0,31.59,South,180,6.2,6.2,83,0.00,,,0.00,VWS V13.00,2013-08-01 10:22:00,
2013-08-01 06:28:00,73.5,68.0,31.59,ESE,112,4.0,6.9,83,0.00,,,0.00,VWS V13.00,2013-08-01 10:28:00,
2013-08-01 06:33:00,73.7,68.2,31.59,SE,135,6.0,6.9,83,0.00,,,0.00,VWS V13.00,2013-08-01 10:33:00,
2013-08-01 06:38:00,73.7,68.2,31.59,South,180,5.8,6.9,83,0.00,,,0.00,VWS V13.00,2013-08-01 10:38:00,
2013-08-01 06:44:00,73.5,67.7,31.59,SSE,158,5.3,7.8,82,0.00,,,0.00,VWS V13.00,2013-08-01 10:44:00,
2013-08-01 06:49:00,73.5,67.7,31.59,ESE,112,4.0,11.4,82,0.00,,,0.00,VWS V13.00,2013-08-01 10:49:00,
2013-08-01 06:55:00,73.5,67.3,31.59,South,180,6.0,11.4,81,0.00,,,0.00,VWS V13.00,2013-08-01 10:55:00,
2013-08-01 07:00:00,73.5,67.0,31.59,SE,135,8.9,8.9,80,0.00,,,0.00,VWS V13.00,2013-08-01 11:00:00,
2013-08-01 07:05:00,73.4,65.8,31.59,SE,135,8.9,8.9,77,0.00,,,0.00,VWS V13.00,2013-08-01 11:05:00,
2013-08-01 07:10:00,73.2,64.8,31.59,South,180,8.5,12.7,75,0.00,,,0.00,VWS V13.00,2013-08-01 11:10:00,
2013-08-01 07:15:00,73.4,64.6,31.59,South,180,2.0,12.7,74,0.00,,,0.00,VWS V13.00,2013-08-01 11:15:00,
2013-08-01 07:21:00,73.2,64.4,31.59,SSE,158,4.4,8.0,74,0.00,,,0.00,VWS V13.00,2013-08-01 11:21:00,
2013-08-01 07:28:00,73.2,64.8,31.59,South,180,6.2,8.0,75,0.00,,,0.00,VWS V13.00,2013-08-01 11:28:00,
2013-08-01 07:33:00,73.2,65.2,31.59,South,180,5.8,8.0,76,0.00,,,0.00,VWS V13.00,2013-08-01 11:33:00,
2013-08-01 07:38:00,73.5,65.9,31.59,SSE,158,4.4,8.0,77,0.00,,,0.00,VWS V13.00,2013-08-01 11:38:00,
2013-08-01 07:43:00,73.5,66.6,31.59,SSE,158,0.0,4.4,79,0.00,,,0.00,VWS V13.00,2013-08-01 11:43:00,
2013-08-01 07:49:00,73.9,67.3,31.59,SE,135,5.1,5.1,80,0.00,,,0.00,VWS V13.00,2013-08-01 11:49:00,
2013-08-01 07:54:00,73.9,67.7,31.59,ESE,112,1.5,5.1,81,0.00,,,0.00,VWS V13.00,2013-08-01 11:54:00,
2013-08-01 08:00:00,74.1,68.3,31.59,SE,135,6.0,6.0,82,0.00,,,0.00,VWS V13.00,2013-08-01 12:00:00,
2013-08-01 08:05:00,74.3,68.4,31.59,South,180,2.0,5.1,82,0.00,,,0.00,VWS V13.00,2013-08-01 12:05:00,
2013-08-01 08:10:00,74.1,68.6,31.59,SSE,158,2.4,5.1,83,0.00,,,0.00,VWS V13.00,2013-08-01 12:10:00,
2013-08-01 08:17:00,74.3,68.4,31.59,South,180,5.1,7.3,82,0.00,,,0.00,VWS V13.00,2013-08-01 12:17:00,
2013-08-01 08:22:00,74.1,68.3,31.59,SSE,158,5.1,5.1,82,0.00,,,0.00,VWS V13.00,2013-08-01 12:22:00,
2013-08-01 08:27:00,74.3,68.4,31.59,SSE,158,8.9,8.9,82,0.00,,,0.00,VWS V13.00,2013-08-01 12:27:00,
2013-08-01 08:32:00,74.3,68.4,31.59,SSW,202,5.8,8.9,82,0.00,,,0.00,VWS V13.00,2013-08-01 12:32:00,
2013-08-01 08:37:00,74.4,68.6,31.59,SSE,158,4.0,8.9,82,0.00,,,0.00,VWS V13.00,2013-08-01 12:37:00,
2013-08-01 08:42:00,74.4,68.6,31.59,SE,135,9.8,9.8,82,0.00,,,0.00,VWS V13.00,2013-08-01 12:42:00,
2013-08-01 08:47:00,74.4,68.2,31.59,SE,135,8.2,9.8,81,0.00,,,0.00,VWS V13.00,2013-08-01 12:47:00,
2013-08-01 08:53:00,74.6,68.4,31.59,South,180,7.6,9.8,81,0.00,,,0.00,VWS V13.00,2013-08-01 12:53:00,
2013-08-01 08:58:00,74.4,68.2,31.59,South,180,9.6,9.8,81,0.00,,,0.00,VWS V13.00,2013-08-01 12:58:00,
2013-08-01 09:03:00,74.3,68.1,31.59,South,180,4.4,6.7,81,0.00,,,0.00,VWS V13.00,2013-08-01 13:03:00,
2013-08-01 09:08:00,73.9,68.1,31.59,South,180,5.8,6.7,82,0.00,,,0.00,VWS V13.00,2013-08-01 13:08:00,
2013-08-01 09:14:00,73.7,68.2,31.59,SSE,158,8.9,8.9,83,0.00,,,0.00,VWS V13.00,2013-08-01 13:14:00,
2013-08-01 09:19:00,73.9,68.4,31.59,East,90,4.6,8.9,83,0.00,,,0.00,VWS V13.00,2013-08-01 13:19:00,
2013-08-01 09:24:00,73.9,68.4,31.59,ESE,112,10.5,10.5,83,0.00,,,0.00,VWS V13.00,2013-08-01 13:24:00,
2013-08-01 09:29:00,74.1,68.6,31.59,South,180,2.4,10.5,83,0.00,,,0.00,VWS V13.00,2013-08-01 13:29:00,
2013-08-01 09:34:00,74.1,68.3,31.59,ESE,112,3.5,10.5,82,0.00,,,0.00,VWS V13.00,2013-08-01 13:34:00,
2013-08-01 09:39:00,74.1,68.3,31.59,South,180,3.8,10.5,82,0.00,,,0.00,VWS V13.00,2013-08-01 13:39:00,
2013-08-01 09:44:00,74.1,68.3,31.59,SSE,158,4.6,6.4,82,0.00,,,0.00,VWS V13.00,2013-08-01 13:44:00,
2013-08-01 09:50:00,74.1,67.9,31.59,East,90,4.2,8.9,81,0.00,,,0.00,VWS V13.00,2013-08-01 13:50:00,
2013-08-01 09:55:00,73.9,67.3,31.59,ESE,112,14.9,14.9,80,0.00,,,0.00,VWS V13.00,2013-08-01 13:55:00,
2013-08-01 10:00:00,73.5,66.2,31.59,SSE,158,7.1,7.1,78,0.00,,,0.00,VWS V13.00,2013-08-01 14:00:00,
2013-08-01 10:05:00,73.2,64.0,31.59,East,90,5.3,8.2,73,0.00,,,0.00,VWS V13.00,2013-08-01 14:05:00,
2013-08-01 10:11:00,73.5,64.7,31.59,SSE,158,6.0,8.2,74,0.00,,,0.00,VWS V13.00,2013-08-01 14:11:00,
2013-08-01 10:17:00,73.9,65.9,31.59,South,180,8.5,11.6,76,0.00,,,0.00,VWS V13.00,2013-08-01 14:17:00,
2013-08-01 10:22:00,74.3,67.0,31.59,SSE,158,9.1,9.1,78,0.00,,,0.00,VWS V13.00,2013-08-01 14:22:00,
2013-08-01 10:27:00,74.4,66.0,31.59,ESE,112,8.5,11.1,75,0.00,,,0.00,VWS V13.00,2013-08-01 14:27:00,
2013-08-01 10:33:00,74.6,65.4,31.59,ESE,112,10.5,11.1,73,0.00,,,0.00,VWS V13.00,2013-08-01 14:33:00,
2013-08-01 10:38:00,75.0,66.6,31.59,SE,135,6.2,11.1,75,0.00,,,0.00,VWS V13.00,2013-08-01 14:38:00,
2013-08-01 10:43:00,75.0,66.2,31.59,SSW,202,7.8,10.2,74,0.00,,,0.00,VWS V13.00,2013-08-01 14:43:00,
2013-08-01 10:49:00,75.3,66.4,31.59,SSW,202,7.3,12.9,74,0.00,,,0.00,VWS V13.00,2013-08-01 14:49:00,
2013-08-01 10:54:00,75.9,67.4,31.59,ESE,112,12.3,12.9,75,0.00,,,0.00,VWS V13.00,2013-08-01 14:54:00,
2013-08-01 11:00:00,76.1,66.0,31.59,SSE,158,13.1,13.6,71,0.00,,,0.00,VWS V13.00,2013-08-01 15:00:00,
2013-08-01 11:05:00,76.1,64.8,31.59,SE,135,6.0,13.4,68,0.00,,,0.00,VWS V13.00,2013-08-01 15:05:00,
2013-08-01 11:10:00,76.2,65.7,31.59,ESE,112,11.1,13.4,70,0.00,,,0.00,VWS V13.00,2013-08-01 15:10:00,
2013-08-01 11:15:00,76.6,66.5,31.59,South,180,10.0,13.4,71,0.00,,,0.00,VWS V13.00,2013-08-01 15:15:00,
2013-08-01 11:21:00,76.8,67.1,31.59,South,180,10.7,10.7,72,0.00,,,0.00,VWS V13.00,2013-08-01 15:21:00,
2013-08-01 11:35:00,77.5,67.8,31.59,SE,135,12.3,14.5,72,0.00,,,0.00,VWS V13.00,2013-08-01 15:35:00,
2013-08-01 11:40:00,77.5,68.2,31.59,ESE,112,12.9,12.9,73,0.00,,,0.00,VWS V13.00,2013-08-01 15:40:00,
2013-08-01 11:45:00,77.5,67.8,31.59,SE,135,18.1,18.1,72,0.00,,,0.00,VWS V13.00,2013-08-01 15:45:00,
2013-08-01 11:51:00,77.5,67.8,31.59,ESE,112,11.6,18.1,72,0.00,,,0.00,VWS V13.00,2013-08-01 15:51:00,
2013-08-01 11:58:00,77.5,67.8,31.59,SSE,158,4.6,18.1,72,0.00,,,0.00,VWS V13.00,2013-08-01 15:58:00,
2013-08-01 12:04:00,77.5,67.4,31.59,SE,135,10.5,10.5,71,0.00,,,0.00,VWS V13.00,2013-08-01 16:04:00,
2013-08-01 12:09:00,77.5,66.9,31.59,SSE,158,10.0,10.5,70,0.00,,,0.00,VWS V13.00,2013-08-01 16:09:00,
2013-08-01 12:15:00,77.7,67.1,31.59,ESE,112,8.2,12.7,70,0.00,,,0.00,VWS V13.00,2013-08-01 16:15:00,
2013-08-01 12:20:00,77.7,67.1,31.59,East,90,5.1,12.7,70,0.00,,,0.00,VWS V13.00,2013-08-01 16:20:00,
2013-08-01 12:25:00,77.7,67.1,31.59,SSE,158,19.9,19.9,70,0.00,,,0.00,VWS V13.00,2013-08-01 16:25:00,
2013-08-01 12:30:00,77.5,66.9,31.59,SSE,158,14.5,19.9,70,0.00,,,0.00,VWS V13.00,2013-08-01 16:30:00,
2013-08-01 12:38:00,77.7,67.1,31.59,ESE,112,11.6,19.9,70,0.00,,,0.00,VWS V13.00,2013-08-01 16:38:00,
2013-08-01 12:43:00,77.9,67.3,31.59,ESE,112,6.4,14.3,70,0.00,,,0.00,VWS V13.00,2013-08-01 16:43:00,
2013-08-01 12:49:00,78.0,67.0,31.59,ESE,112,11.4,15.8,69,0.00,,,0.00,VWS V13.00,2013-08-01 16:49:00,
2013-08-01 12:54:00,78.0,67.0,31.59,SE,135,12.3,15.8,69,0.00,,,0.00,VWS V13.00,2013-08-01 16:54:00,
2013-08-01 12:59:00,77.9,66.5,31.59,South,180,16.3,16.3,68,0.00,,,0.00,VWS V13.00,2013-08-01 16:59:00,
2013-08-01 13:05:00,77.5,66.5,31.59,ESE,112,7.8,8.0,69,0.00,,,0.00,VWS V13.00,2013-08-01 17:05:00,
2013-08-01 13:10:00,77.3,66.3,31.59,SE,135,13.4,13.4,69,0.00,,,0.00,VWS V13.00,2013-08-01 17:10:00,
2013-08-01 13:15:00,77.1,66.6,31.59,SW,225,6.9,13.4,70,0.00,,,0.00,VWS V13.00,2013-08-01 17:15:00,
2013-08-01 13:20:00,76.8,66.3,31.59,SSE,158,15.6,15.6,70,0.00,,,0.00,VWS V13.00,2013-08-01 17:20:00,
2013-08-01 13:25:00,76.4,66.7,31.59,ESE,112,9.1,19.0,72,0.00,,,0.00,VWS V13.00,2013-08-01 17:25:00,
2013-08-01 13:31:00,76.2,66.5,31.59,ENE,68,8.0,19.0,72,0.00,,,0.00,VWS V13.00,2013-08-01 17:31:00,
2013-08-01 13:37:00,75.9,66.6,31.59,South,180,15.6,19.0,73,0.00,,,0.00,VWS V13.00,2013-08-01 17:37:00,
2013-08-01 13:42:00,75.9,66.6,31.59,SSE,158,8.7,10.7,73,0.00,,,0.00,VWS V13.00,2013-08-01 17:42:00,
2013-08-01 13:48:00,75.7,66.4,31.59,ESE,112,16.1,16.1,73,0.00,,,0.00,VWS V13.00,2013-08-01 17:48:00,
2013-08-01 13:53:00,75.3,66.4,31.59,ESE,112,6.2,16.1,74,0.00,,,0.00,VWS V13.00,2013-08-01 17:53:00,
2013-08-01 13:58:00,75.3,66.8,31.59,WNW,292,5.3,16.1,75,0.00,,,0.00,VWS V13.00,2013-08-01 17:58:00,
2013-08-01 14:03:00,74.8,66.7,31.59,ESE,112,7.3,7.6,76,0.00,,,0.00,VWS V13.00,2013-08-01 18:03:00,
2013-08-01 14:09:00,74.1,66.8,31.59,SSE,158,9.3,10.7,78,0.00,,,0.00,VWS V13.00,2013-08-01 18:09:00,
2013-08-01 14:14:00,74.1,66.8,31.59,ENE,68,1.1,10.7,78,0.00,,,0.00,VWS V13.00,2013-08-01 18:14:00,
2013-08-01 14:20:00,73.9,67.0,31.59,SSE,158,8.5,10.7,79,0.00,,,0.00,VWS V13.00,2013-08-01 18:20:00,
2013-08-01 14:25:00,73.9,67.3,31.59,SSE,158,4.4,8.5,80,0.02,,,0.02,VWS V13.00,2013-08-01 18:25:00,
2013-08-01 14:30:00,73.7,67.5,31.59,SSW,202,0.0,8.5,81,0.04,,,0.04,VWS V13.00,2013-08-01 18:30:00,
2013-08-01 14:35:00,73.2,67.4,31.59,SSE,158,8.2,12.7,82,0.20,,,0.20,VWS V13.00,2013-08-01 18:35:00,
2013-08-01 14:41:00,71.4,65.3,31.59,SSW,202,0.0,0.0,81,0.37,,,0.37,VWS V13.00,2013-08-01 18:41:00,
2013-08-01 14:46:00,70.7,64.9,31.59,South,180,0.0,2.6,82,0.41,,,0.41,VWS V13.00,2013-08-01 18:46:00,
2013-08-01 14:52:00,70.5,65.4,31.59,WSW,248,0.0,7.1,84,0.49,,,0.49,VWS V13.00,2013-08-01 18:52:00,
2013-08-01 14:57:00,70.7,66.0,31.59,WSW,248,0.0,7.1,85,0.55,,,0.55,VWS V13.00,2013-08-01 18:57:00,
2013-08-01 15:02:00,70.8,66.1,31.59,East,90,4.0,4.0,85,0.57,,,0.57,VWS V13.00,2013-08-01 19:02:00,
2013-08-01 15:07:00,71.0,66.6,31.59,ESE,112,5.3,5.3,86,0.61,,,0.61,VWS V13.00,2013-08-01 19:07:00,
2013-08-01 15:12:00,71.2,67.1,31.59,South,180,0.0,7.1,87,0.61,,,0.61,VWS V13.00,2013-08-01 19:12:00,
2013-08-01 15:17:00,71.0,66.9,31.59,SSW,202,5.1,7.1,87,0.63,,,0.63,VWS V13.00,2013-08-01 19:17:00,
2013-08-01 15:22:00,71.2,67.1,31.59,ESE,112,9.6,9.6,87,0.61,,,0.63,VWS V13.00,2013-08-01 19:22:00,
2013-08-01 15:28:00,71.2,67.5,31.59,South,180,10.7,10.7,88,0.61,,,0.63,VWS V13.00,2013-08-01 19:28:00,
2013-08-01 15:33:00,70.8,66.7,31.59,SSE,158,5.8,10.7,87,0.41,,,0.65,VWS V13.00,2013-08-01 19:33:00,
2013-08-01 15:39:00,70.5,66.4,31.59,SSE,158,10.5,10.7,87,0.28,,,0.65,VWS V13.00,2013-08-01 19:39:00,
2013-08-01 15:44:00,70.1,66.4,31.59,SE,135,12.7,14.9,88,0.26,,,0.67,VWS V13.00,2013-08-01 19:44:00,
2013-08-01 15:50:00,69.6,66.2,31.59,South,180,6.4,20.5,89,0.22,,,0.72,VWS V13.00,2013-08-01 19:50:00,
2013-08-01 15:55:00,69.4,66.0,31.59,South,180,11.1,20.5,89,0.16,,,0.72,VWS V13.00,2013-08-01 19:55:00,
2013-08-01 16:02:00,69.4,66.3,31.59,South,180,10.7,10.7,90,0.14,,,0.74,VWS V13.00,2013-08-01 20:02:00,
2013-08-01 16:08:00,69.4,66.3,31.59,South,180,11.8,11.8,90,0.12,,,0.74,VWS V13.00,2013-08-01 20:08:00,
2013-08-01 16:13:00,69.4,66.7,31.59,South,180,21.0,21.0,91,0.10,,,0.74,VWS V13.00,2013-08-01 20:13:00,
2013-08-01 16:18:00,69.4,66.7,31.59,SSE,158,7.6,21.0,91,0.12,,,0.76,VWS V13.00,2013-08-01 20:18:00,
2013-08-01 16:23:00,69.4,66.7,31.59,South,180,9.8,17.2,91,0.12,,,0.76,VWS V13.00,2013-08-01 20:23:00,
2013-08-01 16:29:00,69.4,66.7,31.59,South,180,10.9,17.2,91,0.10,,,0.76,VWS V13.00,2013-08-01 20:29:00,
2013-08-01 16:34:00,69.4,66.7,31.59,SSE,158,12.5,17.2,91,0.12,,,0.78,VWS V13.00,2013-08-01 20:34:00,
2013-08-01 16:40:00,69.4,66.7,31.59,South,180,8.5,17.2,91,0.10,,,0.78,VWS V13.00,2013-08-01 20:40:00,
2013-08-01 16:42:00,69.2,66.5,31.59,SSE,158,12.3,12.3,91,0.10,,,0.78,VWS V13.00,2013-08-01 20:42:00,
2013-08-01 16:48:00,69.0,65.9,31.59,South,180,9.1,12.3,90,0.08,,,0.78,VWS V13.00,2013-08-01 20:48:00,
2013-08-01 16:53:00,69.0,66.3,31.59,North,0,5.8,12.3,91,0.06,,,0.78,VWS V13.00,2013-08-01 20:53:00,
2013-08-01 16:58:00,69.2,66.2,31.59,South,180,15.2,15.2,90,0.04,,,0.78,VWS V13.00,2013-08-01 20:58:00,
2013-08-01 17:03:00,69.0,65.9,31.59,SE,135,4.6,9.3,90,0.04,,,0.78,VWS V13.00,2013-08-01 21:03:00,
2013-08-01 17:08:00,69.2,66.2,31.59,South,180,9.3,19.2,90,0.04,,,0.78,VWS V13.00,2013-08-01 21:08:00,
2013-08-01 17:13:00,69.4,66.3,31.59,South,180,8.7,19.2,90,0.02,,,0.78,VWS V13.00,2013-08-01 21:13:00,
2013-08-01 17:18:00,69.4,66.3,31.59,South,180,15.8,19.2,90,0.02,,,0.78,VWS V13.00,2013-08-01 21:18:00,
2013-08-01 17:24:00,69.4,66.3,31.59,SE,135,5.8,13.1,90,0.02,,,0.78,VWS V13.00,2013-08-01 21:24:00,
2013-08-01 17:29:00,69.6,66.5,31.59,SSE,158,5.5,13.1,90,0.00,,,0.78,VWS V13.00,2013-08-01 21:29:00,
2013-08-01 17:34:00,69.6,66.5,31.59,SE,135,6.9,13.1,90,0.00,,,0.78,VWS V13.00,2013-08-01 21:34:00,
2013-08-01 17:39:00,69.6,66.2,31.59,South,180,3.1,13.1,89,0.00,,,0.78,VWS V13.00,2013-08-01 21:39:00,
2013-08-01 17:44:00,69.6,66.2,31.59,SE,135,5.1,6.7,89,0.00,,,0.78,VWS V13.00,2013-08-01 21:44:00,
2013-08-01 17:50:00,69.6,66.2,31.59,SSE,158,6.0,6.7,89,0.00,,,0.78,VWS V13.00,2013-08-01 21:50:00,
2013-08-01 17:55:00,69.6,66.2,31.59,South,180,6.0,10.7,89,0.00,,,0.78,VWS V13.00,2013-08-01 21:55:00,
2013-08-01 18:00:00,69.6,66.2,31.59,SSE,158,3.5,3.5,89,0.00,,,0.78,VWS V13.00,2013-08-01 22:00:00,
2013-08-01 18:05:00,69.6,66.2,31.59,South,180,5.1,5.1,89,0.00,,,0.78,VWS V13.00,2013-08-01 22:05:00,
2013-08-01 18:11:00,69.8,66.7,31.59,SE,135,4.9,5.3,90,0.00,,,0.78,VWS V13.00,2013-08-01 22:11:00,
2013-08-01 18:16:00,69.8,66.4,31.59,SE,135,4.4,5.3,89,0.00,,,0.78,VWS V13.00,2013-08-01 22:16:00,
2013-08-01 18:22:00,69.9,66.5,31.59,East,90,0.0,4.4,89,0.00,,,0.78,VWS V13.00,2013-08-01 22:22:00,
2013-08-01 18:27:00,69.9,66.5,31.59,SSE,158,4.6,6.0,89,0.00,,,0.78,VWS V13.00,2013-08-01 22:27:00,
2013-08-01 18:32:00,69.9,66.5,31.59,SE,135,7.8,7.8,89,0.00,,,0.78,VWS V13.00,2013-08-01 22:32:00,
2013-08-01 18:37:00,70.1,66.7,31.59,South,180,3.5,7.8,89,0.00,,,0.78,VWS V13.00,2013-08-01 22:37:00,
2013-08-01 18:42:00,70.1,66.4,31.59,SSE,158,5.1,9.1,88,0.00,,,0.78,VWS V13.00,2013-08-01 22:42:00,
2013-08-01 18:48:00,70.3,66.6,31.59,ESE,112,5.3,9.1,88,0.00,,,0.78,VWS V13.00,2013-08-01 22:48:00,
2013-08-01 18:53:00,70.5,66.8,31.59,South,180,5.3,9.1,88,0.00,,,0.78,VWS V13.00,2013-08-01 22:53:00,
2013-08-01 18:58:00,70.5,66.8,31.59,SE,135,4.6,9.1,88,0.00,,,0.78,VWS V13.00,2013-08-01 22:58:00,
2013-08-01 19:03:00,70.7,67.0,31.59,South,180,5.1,5.1,88,0.00,,,0.78,VWS V13.00,2013-08-01 23:03:00,
2013-08-01 19:09:00,70.7,67.0,31.59,SSE,158,4.2,6.0,88,0.00,,,0.78,VWS V13.00,2013-08-01 23:09:00,
2013-08-01 19:14:00,70.8,67.1,31.59,NE,45,2.9,6.0,88,0.00,,,0.78,VWS V13.00,2013-08-01 23:14:00,
2013-08-01 19:19:00,70.8,67.4,31.59,SSE,158,8.2,8.2,89,0.00,,,0.78,VWS V13.00,2013-08-01 23:19:00,
2013-08-01 19:24:00,71.2,67.8,31.59,SSW,202,10.9,10.9,89,0.00,,,0.78,VWS V13.00,2013-08-01 23:24:00,
2013-08-01 19:29:00,71.4,68.0,31.59,SSE,158,5.1,10.9,89,0.00,,,0.78,VWS V13.00,2013-08-01 23:29:00,
2013-08-01 19:33:00,71.4,68.0,31.59,East,90,8.0,10.9,89,0.00,,,0.78,VWS V13.00,2013-08-01 23:33:00,
2013-08-01 19:38:00,71.4,68.0,31.59,South,180,7.6,10.9,89,0.00,,,0.78,VWS V13.00,2013-08-01 23:38:00,
2013-08-01 19:44:00,71.6,68.2,31.59,East,90,8.7,10.2,89,0.00,,,0.78,VWS V13.00,2013-08-01 23:44:00,
2013-08-01 19:49:00,71.7,68.3,31.59,SE,135,6.0,10.2,89,0.00,,,0.78,VWS V13.00,2013-08-01 23:49:00,
2013-08-01 19:54:00,71.7,68.3,31.59,SE,135,6.9,10.2,89,0.00,,,0.78,VWS V13.00,2013-08-01 23:54:00,
2013-08-01 19:59:00,71.7,68.3,31.59,SE,135,3.8,10.7,89,0.00,,,0.78,VWS V13.00,2013-08-01 23:59:00,
2013-08-01 20:04:00,72.1,68.7,31.59,ESE,112,6.9,8.5,89,0.00,,,0.78,VWS V13.00,2013-08-02 00:04:00,
2013-08-01 20:10:00,72.1,68.7,31.59,SSW,202,0.0,9.1,89,0.00,,,0.78,VWS V13.00,2013-08-02 00:10:00,
2013-08-01 20:15:00,72.1,68.7,31.59,SE,135,9.1,9.1,89,0.00,,,0.78,VWS V13.00,2013-08-02 00:15:00,
2013-08-01 20:20:00,72.1,68.7,31.59,SSE,158,6.9,6.9,89,0.00,,,0.78,VWS V13.00,2013-08-02 00:20:00,
2013-08-01 20:25:00,72.1,68.7,31.59,South,180,9.1,9.1,89,0.00,,,0.78,VWS V13.00,2013-08-02 00:25:00,
2013-08-01 20:31:00,72.1,68.7,31.59,SE,135,7.6,9.1,89,0.00,,,0.78,VWS V13.00,2013-08-02 00:31:00,
2013-08-01 20:36:00,71.7,68.0,31.59,SSE,158,8.7,9.1,88,0.00,,,0.78,VWS V13.00,2013-08-02 00:36:00,
2013-08-01 20:41:00,71.7,67.6,31.59,South,180,12.7,12.7,87,0.00,,,0.78,VWS V13.00,2013-08-02 00:41:00,
2013-08-01 20:46:00,71.7,67.6,31.59,South,180,9.1,12.7,87,0.00,,,0.78,VWS V13.00,2013-08-02 00:46:00,
2013-08-01 20:51:00,71.7,67.6,31.59,ESE,112,6.9,12.7,87,0.00,,,0.78,VWS V13.00,2013-08-02 00:51:00,
2013-08-01 20:57:00,71.9,67.8,31.59,SE,135,7.6,12.7,87,0.00,,,0.78,VWS V13.00,2013-08-02 00:57:00,
2013-08-01 21:02:00,72.1,68.0,31.59,ESE,112,3.8,10.5,87,0.00,,,0.78,VWS V13.00,2013-08-02 01:02:00,
2013-08-01 21:07:00,72.3,68.6,31.59,SSE,158,8.9,13.6,88,0.00,,,0.78,VWS V13.00,2013-08-02 01:07:00,
2013-08-01 21:12:00,72.6,68.8,31.59,South,180,6.2,13.6,88,0.00,,,0.78,VWS V13.00,2013-08-02 01:12:00,
2013-08-01 21:17:00,72.8,69.4,31.59,South,180,17.2,17.2,89,0.00,,,0.78,VWS V13.00,2013-08-02 01:17:00,
2013-08-01 21:22:00,73.0,69.6,31.59,SSE,158,13.6,13.6,89,0.00,,,0.78,VWS V13.00,2013-08-02 01:22:00,
2013-08-01 21:28:00,73.0,69.6,31.59,SE,135,10.7,13.6,89,0.00,,,0.78,VWS V13.00,2013-08-02 01:28:00,
2013-08-01 21:33:00,72.8,69.4,31.59,SSE,158,7.8,13.6,89,0.00,,,0.78,VWS V13.00,2013-08-02 01:33:00,
2013-08-01 21:38:00,72.6,69.2,31.59,SE,135,9.6,13.6,89,0.00,,,0.78,VWS V13.00,2013-08-02 01:38:00,
2013-08-01 21:43:00,72.6,69.2,31.59,SSW,202,9.8,9.8,89,0.00,,,0.78,VWS V13.00,2013-08-02 01:43:00,
2013-08-01 21:49:00,72.5,69.1,31.59,South,180,5.3,12.5,89,0.00,,,0.78,VWS V13.00,2013-08-02 01:49:00,
2013-08-01 21:54:00,72.5,69.1,31.59,SE,135,7.8,13.8,89,0.00,,,0.78,VWS V13.00,2013-08-02 01:54:00,
2013-08-01 21:59:00,72.3,68.9,31.59,South,180,4.2,13.8,89,0.00,,,0.78,VWS V13.00,2013-08-02 01:59:00,
2013-08-01 22:05:00,72.3,68.9,31.59,SSW,202,5.8,5.8,89,0.00,,,0.78,VWS V13.00,2013-08-02 02:05:00,
2013-08-01 22:10:00,72.3,68.9,31.59,South,180,4.4,6.0,89,0.00,,,0.78,VWS V13.00,2013-08-02 02:10:00,
2013-08-01 22:15:00,72.3,68.9,31.59,SSW,202,0.6,6.0,89,0.00,,,0.78,VWS V13.00,2013-08-02 02:15:00,
2013-08-01 22:20:00,72.3,68.9,31.59,South,180,3.8,3.8,89,0.00,,,0.78,VWS V13.00,2013-08-02 02:20:00,
2013-08-01 22:26:00,72.3,68.9,31.59,SSW,202,5.8,5.8,89,0.00,,,0.78,VWS V13.00,2013-08-02 02:26:00,
2013-08-01 22:32:00,72.3,68.6,31.59,SSW,202,0.0,8.5,88,0.00,,,0.78,VWS V13.00,2013-08-02 02:32:00,
2013-08-01 22:37:00,72.3,68.9,31.59,South,180,2.6,8.5,89,0.00,,,0.78,VWS V13.00,2013-08-02 02:37:00,
2013-08-01 22:42:00,72.3,68.9,31.59,SSW,202,4.6,4.6,89,0.00,,,0.78,VWS V13.00,2013-08-02 02:42:00,
2013-08-01 22:47:00,72.3,68.9,31.59,SE,135,4.9,4.9,89,0.00,,,0.78,VWS V13.00,2013-08-02 02:47:00,
2013-08-01 22:52:00,72.1,68.7,31.59,SSW,202,0.0,4.9,89,0.00,,,0.78,VWS V13.00,2013-08-02 02:52:00,
2013-08-01 22:57:00,72.1,68.7,31.59,SSW,202,0.0,4.9,89,0.00,,,0.78,VWS V13.00,2013-08-02 02:57:00,
2013-08-01 23:03:00,72.1,68.7,31.59,West,270,0.0,0.0,89,0.00,,,0.78,VWS V13.00,2013-08-02 03:03:00,
2013-08-01 23:08:00,72.1,68.7,31.59,SSW,202,2.9,2.9,89,0.00,,,0.78,VWS V13.00,2013-08-02 03:08:00,
2013-08-01 23:13:00,72.1,68.7,31.59,West,270,0.0,2.9,89,0.00,,,0.78,VWS V13.00,2013-08-02 03:13:00,
2013-08-01 23:19:00,72.1,68.7,31.59,West,270,8.5,8.5,89,0.00,,,0.78,VWS V13.00,2013-08-02 03:19:00,
2013-08-01 23:24:00,71.9,68.5,31.59,West,270,4.4,5.3,89,0.00,,,0.78,VWS V13.00,2013-08-02 03:24:00,
2013-08-01 23:30:00,71.9,68.5,31.59,West,270,0.0,7.3,89,0.00,,,0.78,VWS V13.00,2013-08-02 03:30:00,
2013-08-01 23:35:00,71.9,68.5,31.59,SW,225,2.9,7.3,89,0.00,,,0.78,VWS V13.00,2013-08-02 03:35:00,
2013-08-01 23:40:00,71.7,68.3,31.59,South,180,0.0,0.0,89,0.00,,,0.78,VWS V13.00,2013-08-02 03:40:00,
2013-08-01 23:46:00,71.7,68.3,31.59,West,270,0.0,3.5,89,0.00,,,0.78,VWS V13.00,2013-08-02 03:46:00,
2013-08-01 23:52:00,71.7,68.6,31.59,SW,225,0.0,4.6,90,0.00,,,0.78,VWS V13.00,2013-08-02 03:52:00,
2013-08-01 23:57:00,71.7,68.3,31.59,West,270,0.0,4.6,89,0.00,,,0.78,VWS V13.00,2013-08-02 03:57:00,